Date String (YYYY-MM-DD hh:mm:ss) UTC,Instrument flags,Ambient pressure (hPa),Sample flow (lpm),Bypass flow (lpm),Sample temperature (°C),Ambient temperature (°C),ASC tube jacket temperature (°C),LED temperature (°C),Box temperature (°C),Sample RH (%),Span deviation,Mass concentration (μg/m³),Mass concentration (μg/m³),Mass concentration (μg/m³)
DateTimeUTC,F1_M11,P_M11,Q1_M11,Q2_M11,T1_M11,T2_M11,T3_M11,T4_M11,T5_M11,U1_M11,ZSPAN_M11,X0_M11,X2_M11,X1_M11
2021-12-06 11:00:00,,0829.6,4.98,0.00,21.5,22.4,00.0,30.3,23.4,06.9,0000.0,0004.27,0001.82,0001.28
2021-12-06 11:01:00,,0829.6,5.00,0.00,21.5,22.0,00.0,30.3,23.3,06.9,0000.0,0004.11,0001.76,0001.27
2021-12-06 11:02:00,,0829.5,5.01,0.00,21.5,21.5,00.0,30.3,23.2,06.9,0000.0,0004.71,0001.70,0001.27
2021-12-06 11:03:00,,0829.5,5.00,0.00,21.4,21.2,00.0,30.3,23.1,06.9,0000.0,0005.45,0001.72,0001.26
2021-12-06 11:04:00,,0829.5,5.00,0.00,21.4,20.9,00.0,30.3,23.0,06.9,0000.0,0006.98,0001.76,0001.26
2021-12-06 11:05:00,,0829.4,5.00,0.00,21.3,20.7,00.0,30.3,22.9,06.9,0000.0,0007.32,0001.72,0001.26
2021-12-06 11:06:00,,0829.3,5.02,0.00,21.3,20.5,00.0,30.3,22.8,06.9,0000.0,0007.25,0001.69,0001.26
2021-12-06 11:07:00,,0829.4,4.99,0.00,21.3,20.4,00.0,30.3,22.8,06.9,0000.0,0007.35,0001.71,0001.27
2021-12-06 11:08:00,,0829.4,4.99,0.00,21.2,20.2,00.0,30.3,22.7,06.9,0000.0,0007.28,0001.71,0001.27
2021-12-06 11:09:00,,0829.5,5.02,0.00,21.1,20.1,00.0,30.2,22.6,06.9,0000.0,0007.42,0001.74,0001.29
2021-12-06 11:10:00,,0829.5,4.98,0.00,21.1,20.0,00.0,30.2,22.6,06.9,0000.0,0007.12,0001.79,0001.29
2021-12-06 11:11:00,,0829.5,5.01,0.00,21.0,19.9,00.0,30.2,22.5,06.9,0000.0,0007.37,0001.80,0001.29
2021-12-06 11:12:00,,0829.5,4.99,0.00,21.0,20.0,00.0,30.2,22.5,07.0,0000.0,0007.47,0001.82,0001.30
2021-12-06 11:13:00,,0829.5,5.00,0.00,21.1,20.8,00.0,30.2,22.7,06.9,0000.0,0006.86,0001.86,0001.30
2021-12-06 11:14:00,,0829.3,5.00,0.00,21.2,21.9,00.0,30.2,23.0,06.9,0000.0,0006.27,0001.89,0001.31
2021-12-06 11:15:00,,0829.2,5.01,0.00,21.4,22.5,00.0,30.3,23.3,06.8,0000.0,0004.93,0001.86,0001.31
2021-12-06 11:16:00,,0829.2,4.99,0.00,21.4,22.1,00.0,30.3,23.3,06.8,0000.0,0004.50,0001.89,0001.32
2021-12-06 11:17:00,,0829.2,5.00,0.00,21.4,21.6,00.0,30.3,23.1,06.8,0000.0,0004.48,0001.90,0001.31
2021-12-06 11:18:00,,0829.2,5.01,0.00,21.4,21.2,00.0,30.3,23.0,06.8,0000.0,0004.38,0001.90,0001.30
2021-12-06 11:19:00,,0829.2,5.00,0.00,21.3,20.9,00.0,30.3,22.9,06.8,0000.0,0004.29,0001.89,0001.29
2021-12-06 11:20:00,,0829.2,4.99,0.00,21.3,20.7,00.0,30.3,22.8,06.8,0000.0,0004.09,0001.82,0001.27
2021-12-06 11:21:00,,0829.3,5.01,0.00,21.2,20.4,00.0,30.3,22.8,06.8,0000.0,0003.93,0001.78,0001.27
2021-12-06 11:22:00,,0829.3,5.00,0.00,21.2,20.3,00.0,30.3,22.7,06.9,0000.0,0003.17,0001.78,0001.27
2021-12-06 11:23:00,,0829.5,5.00,0.00,21.1,20.3,00.0,30.2,22.7,06.9,0000.0,0003.15,0001.79,0001.27
2021-12-06 11:24:00,,0829.6,5.00,0.00,21.1,20.3,00.0,30.2,22.7,06.9,0000.0,0003.07,0001.76,0001.27
2021-12-06 11:25:00,,0829.5,4.99,0.00,21.1,20.3,00.0,30.2,22.7,06.9,0000.0,0003.06,0001.75,0001.26
2021-12-06 11:26:00,,0829.5,4.99,0.00,21.1,20.4,00.0,30.2,22.7,06.9,0000.0,0003.00,0001.76,0001.25
2021-12-06 11:27:00,,0829.4,5.01,0.00,21.1,20.4,00.0,30.2,22.7,06.9,0000.0,0002.92,0001.75,0001.26
2021-12-06 11:28:00,,0829.3,5.00,0.00,21.1,20.4,00.0,30.2,22.7,06.9,0000.0,0002.98,0001.76,0001.26
2021-12-06 11:29:00,,0829.5,5.00,0.00,21.2,21.1,00.0,30.2,22.9,06.9,0000.0,0002.86,0001.73,0001.26
2021-12-06 11:30:00,,0829.5,5.00,0.00,21.3,22.1,00.0,30.2,23.2,06.9,0000.0,0003.17,0001.73,0001.27
2021-12-06 11:31:00,,0829.3,5.01,0.00,21.5,22.7,00.0,30.3,23.5,06.8,0000.0,0003.76,0001.75,0001.29
2021-12-06 11:32:00,,0829.5,4.98,0.00,21.6,22.4,00.0,30.3,23.5,06.8,0000.0,0003.93,0001.78,0001.30
2021-12-06 11:33:00,,0829.5,5.01,0.00,21.6,22.0,00.0,30.4,23.4,06.8,0000.0,0004.10,0001.78,0001.31
2021-12-06 11:34:00,,0829.5,5.00,0.00,21.6,21.7,00.0,30.4,23.3,06.8,0000.0,0004.90,0001.82,0001.31
2021-12-06 11:35:00,,0829.5,4.99,0.00,21.6,21.5,00.0,30.4,23.3,06.8,0000.0,0005.02,0001.86,0001.31
2021-12-06 11:36:00,,0829.5,5.00,0.00,21.5,21.3,00.0,30.4,23.2,06.7,0000.0,0004.92,0001.83,0001.32
2021-12-06 11:37:00,,0829.5,5.01,0.00,21.5,21.2,00.0,30.4,23.2,06.8,0000.0,0004.88,0001.81,0001.34
2021-12-06 11:38:00,,0829.4,4.99,0.00,21.5,21.1,00.0,30.4,23.1,06.8,0000.0,0004.91,0001.79,0001.35
2021-12-06 11:39:00,,0829.4,4.99,0.00,21.5,21.0,00.0,30.4,23.1,06.8,0000.0,0006.63,0001.77,0001.36
2021-12-06 11:40:00,,0829.5,5.01,0.00,21.4,20.8,00.0,30.4,23.1,06.8,0000.0,0006.71,0001.80,0001.37
2021-12-06 11:41:00,,0829.5,4.99,0.00,21.4,20.8,00.0,30.4,23.0,06.8,0000.0,0006.36,0001.79,0001.38
2021-12-06 11:42:00,,0829.4,5.00,0.00,21.4,20.8,00.0,30.4,23.0,06.8,0000.0,0005.64,0001.77,0001.37
2021-12-06 11:43:00,,0829.3,5.00,0.00,21.4,20.7,00.0,30.4,23.0,06.8,0000.0,0005.51,0001.79,0001.39
2021-12-06 11:44:00,,0829.5,4.99,0.00,21.4,20.6,00.0,30.4,22.9,06.8,0000.0,0005.38,0001.84,0001.41
2021-12-06 11:45:00,,0829.4,5.01,0.00,21.4,20.9,00.0,30.4,23.0,06.8,0000.0,0004.55,0001.80,0001.42
2021-12-06 11:46:00,,0829.4,4.99,0.00,21.5,21.7,00.0,30.4,23.2,06.8,0000.0,0004.67,0001.79,0001.44
2021-12-06 11:47:00,,0829.6,5.00,0.00,21.6,22.5,00.0,30.4,23.5,06.7,0000.0,0006.80,0001.84,0001.44
2021-12-06 11:48:00,,0829.6,5.00,0.00,21.7,22.6,00.0,30.5,23.7,06.7,0000.0,0007.51,0001.87,0001.44
2021-12-06 11:49:00,,0829.6,5.01,0.00,21.8,22.4,00.0,30.5,23.7,06.7,0000.0,0007.48,0001.85,0001.43
2021-12-06 11:50:00,,0829.6,5.00,0.00,21.8,22.1,00.0,30.5,23.6,06.6,0000.0,0005.91,0001.85,0001.43
2021-12-06 11:51:00,,0829.5,5.00,0.00,21.8,21.9,00.0,30.6,23.6,06.6,0000.0,0005.69,0001.85,0001.43
2021-12-06 11:52:00,,0829.6,5.00,0.00,21.8,21.7,00.0,30.6,23.5,06.6,0000.0,0005.85,0001.87,0001.41
2021-12-06 11:53:00,,0829.6,4.99,0.00,21.8,21.5,00.0,30.6,23.5,06.6,0000.0,0006.30,0001.95,0001.43
2021-12-06 11:54:00,,0829.6,4.99,0.00,21.7,21.4,00.0,30.6,23.4,06.6,0000.0,0007.24,0001.95,0001.42
2021-12-06 11:55:00,,0829.6,5.01,0.00,21.7,21.3,00.0,30.6,23.4,06.7,0000.0,0007.33,0001.94,0001.43
2021-12-06 11:56:00,,0829.8,4.99,0.00,21.7,21.2,00.0,30.6,23.3,06.7,0000.0,0007.45,0002.00,0001.43
2021-12-06 11:57:00,,0829.7,4.99,0.00,21.7,21.2,00.0,30.6,23.3,06.7,0000.0,0007.33,0002.02,0001.43
2021-12-06 11:58:00,,0829.6,5.01,0.00,21.7,21.1,00.0,30.6,23.3,06.7,0000.0,0005.24,0001.98,0001.44
2021-12-06 11:59:00,,0829.6,4.99,0.00,21.7,21.1,00.0,30.6,23.3,06.6,0000.0,0004.71,0001.98,0001.43
